User: anonymous   Login
Location: Space Photons Observatory
(33.2428°N, 111.5467°W)
Time: 06:07:12
(UTC-07:00)
Language:

RESURS DK-1 - Orbit

View from above orbital plane
View from above orbital plane
View from above satellite
View from above satellite

Ground track
Ground track

The orbit data is extracted from the following two-line orbital elements,

1 29228U 06021A   16243.16142172  .00000282  00000-0  28905-4 0  9992
2 29228  69.9352 118.4138 0002203  33.9402 326.1899 15.01968369564408
Epoch (UTC): 30 August 2016 03:52:26
Eccentricity: 0.0002203
inclination: 69.9352°
perigee height: 559 km
apogee height: 562 km
right ascension of ascending node: 118.4138°
argument of perigee: 33.9402°
revolutions per day: 15.01968369
mean anomaly at epoch: 326.1899°
orbit number at epoch: 56440

The dashed part of the orbit path shows where the satellite is in the earth's shadow,  

DLR